User: anonymous   Login
Location: Fort Wayne
(41.1310°N, 85.1290°W)
Time: 09:30:33
(UTC-04:00)
Language:

Cosmos 1980 - Orbit

View from above orbital plane
View from above orbital plane
View from above satellite
View from above satellite

Ground track
Ground track

The orbit data is extracted from the following two-line orbital elements,

1 19649U 88102A   15187.21598835  .00000255  00000-0  15756-3 0  9990
2 19649 071.0004 120.0957 0006905 302.5785 057.4670 14.14609019373880
Epoch (UTC): 06 July 2015 05:11:01
Eccentricity: 0.0006905
inclination: 71.0004°
perigee height: 838 km
apogee height: 848 km
right ascension of ascending node: 120.0957°
argument of perigee: 302.5785°
revolutions per day: 14.14609019
mean anomaly at epoch: 57.4670°
orbit number at epoch: 37388

The dashed part of the orbit path shows where the satellite is in the earth's shadow,  

DLR